Location: Unspecified
(64.9000°N, 0.0000°E)
Time: 01:37:53
(UTC+00:00)

Altair - Pass Details

Date: 16 June 2019
Orbit: 1501 x 1683 km, 47.2° (Epoch: 16 August)

Event Time Altitude Azimuth Distance (km) Brightness Sun altitude
Rises 21:01:28 0° 196° (SSW) 4,772 9.8 4.8°
Reaches altitude 10° 21:05:57 10° 178° (S) 3,825 9.1 4.4°
Maximum altitude 21:11:31 17° 142° (SE) 3,336 8.7 4.1°
Drops below altitude 10° 21:17:11 10° 107° (ESE) 3,907 9.2 3.7°
Sets 21:21:49 0° 90° (E) 4,920 9.8 3.4°
